Location: *
(45.0500°N, 12.0500°E)
Time: 10:02:27
(UTC+00:00)

STARLINK-1229 - Pass Details

Date: 09 April 2020
Orbit: 378 x 381 km, 53.0° (Epoch: 26 May)

Event Time Altitude Azimuth Distance (km) Brightness Sun altitude
Rises 19:52:57 0° 299° (WNW) 2,261 8.3 -20.5°
Reaches altitude 10° 19:55:03 10° 293° (WNW) 1,403 6.8 -20.8°
Enters shadow 19:57:33 40° 250° (WSW) 580 3.9 -21.2°
